Location: Vale
(35.4830°N, 81.3830°W)
Time: 23:30:48
(UTC-04:00)

Amateur Radio Satellites - All Passes

Search period start: 24 October 2014 23:00
Search period end: 25 October 2014 23:00
Location: Vale, 35.4830°N, 81.3830°W

Satellite Date Start Highest point End Downlink Frequencies (MHz)
Time Altitude Azimuth
ZACube-1 24 Oct 23:14:03 23:18:37 66° 259° (W) 23:23:09 437.345 MHz
MaSat-1 24 Oct 23:16:26 23:18:56 15° 106° (ESE) 23:21:19 437.345 MHz
UKube-1 24 Oct 23:21:06 23:24:12 19° 265° (W) 23:27:19 145.840 MHz, 145.915 MHz
RS-15 24 Oct 23:47:34 23:58:25 61° 305° (NW) 00:09:13 29.354 - 29.394 USB, Beacon 29.352 USB
FUNcube-1 25 Oct 00:00:09 00:03:35 21° 265° (W) 00:07:00 145.950 - 145.970 MHz USB
UOSAT-12 25 Oct 00:04:55 00:09:26 44° 56° (NE) 00:13:51 437.025 FM, 437.400 FM
SO-50 25 Oct 00:23:44 00:25:25 12° 253° (WSW) 00:27:06 436.795 FM
KITSAT 1 25 Oct 00:27:51 00:32:07 15° 259° (W) 00:36:23 435.175 FM
MaSat-1 25 Oct 00:50:28 00:54:20 36° 296° (WNW) 00:57:54 437.345 MHz
UOSAT-12 25 Oct 01:46:07 01:49:11 18° 251° (WSW) 01:52:13 437.025 FM, 437.400 FM
JAS-1B 25 Oct 01:55:18 02:00:42 23° 97° (E) 02:06:45 435.800 - 435.900 CW/SSB
Oscar 16 25 Oct 02:04:02 02:07:58 22° 95° (E) 02:11:53 437.025 USB, Beacon 2401.1428
RS-15 25 Oct 02:06:43 02:13:41 18° 332° (NNW) 02:20:43 29.354 - 29.394 USB, Beacon 29.352 USB
Uribyol 2 25 Oct 02:24:57 02:27:32 14° 92° (E) 02:30:06 436.500 FM
ITAMSAT 1 25 Oct 02:30:43 02:33:38 15° 93° (E) 02:36:31 435.822 SSB
Oscar 10/S400 25 Oct 02:37:53 03:32:16 16° 250° (WSW) 05:12:46 145.825 - 145.975 CW/USB, Beacon 145.810 USB
Gurwin Techsat 1B 25 Oct 02:51:50 02:53:52 12° 91° (E) 02:55:53 435.225 FM
Oscar 19 25 Oct 02:56:32 03:01:40 76° 102° (ESE) 03:06:46 437.125 CW, 437.150 USB
TMSAT-1 25 Oct 03:03:29 03:04:59 11° 91° (E) 03:06:30 436.925 FM
AO-27 25 Oct 03:14:41 03:19:40 44° 99° (E) 03:24:36 436.795 MHz FM
AO-Echo 25 Oct 03:36:18 03:41:39 84° 284° (WNW) 03:46:57 ?
Sapphire 25 Oct 03:41:20 03:46:01 31° 108° (ESE) 03:50:44 437.095 MHz 1200 baud AX-25 AFSK
Oscar 16 25 Oct 03:42:42 03:47:22 37° 289° (WNW) 03:52:01 437.025 USB, Beacon 2401.1428
JAS-1B 25 Oct 03:44:41 03:51:22 61° 287° (WNW) 03:59:22 435.800 - 435.900 CW/SSB
Uribyol 2 25 Oct 04:02:13 04:07:21 59° 287° (WNW) 04:12:25 436.500 FM
PCSat 25 Oct 04:03:10 04:08:25 55° 112° (ESE) 04:13:42 145.825 MHz
ITAMSAT 1 25 Oct 04:08:19 04:13:25 55° 287° (WNW) 04:18:29 435.822 SSB
RS-15 25 Oct 04:28:24 04:32:50 13° 11° (N) 04:37:19 29.354 - 29.394 USB, Beacon 29.352 USB
Gurwin Techsat 1B 25 Oct 04:28:58 04:34:15 69° 285° (WNW) 04:39:31 435.225 FM
OPAL 25 Oct 04:30:09 04:32:52 15° 62° (ENE) 04:35:34 ?
Oscar 19 25 Oct 04:38:40 04:40:19 12° 298° (WNW) 04:41:57 437.125 CW, 437.150 USB
TMSAT-1 25 Oct 04:40:05 04:45:23 73° 285° (WNW) 04:50:38 436.925 FM
AO-27 25 Oct 04:55:04 04:58:49 20° 294° (WNW) 05:02:32 436.795 MHz FM
JAS-2 25 Oct 05:15:25 05:18:49 13° 88° (E) 05:22:11 435.800 - 435.900 CW/SSB, 435.910 FM
AO-7 25 Oct 05:20:29 05:28:33 52° 102° (ESE) 05:36:36 29.400 - 29.500 MHz
Uosat F 25 Oct 05:21:41 05:26:22 37° 99° (E) 05:31:01 435.120 FM
Sapphire 25 Oct 05:24:34 05:29:20 32° 304° (NW) 05:34:10 437.095 MHz 1200 baud AX-25 AFSK
PCSat 25 Oct 05:48:18 05:52:10 20° 309° (NW) 05:56:03 145.825 MHz
OPAL 25 Oct 06:06:05 06:11:12 63° 256° (WSW) 06:16:16 ?
STRAND 1 25 Oct 06:14:43 06:17:32 15° 64° (ENE) 06:20:21 ?
Hamsat 25 Oct 06:24:34 06:27:44 21° 95° (E) 06:30:55 145.90 MHz
RS-15 25 Oct 06:40:22 06:50:14 34° 44° (NE) 07:00:24 29.354 - 29.394 USB, Beacon 29.352 USB
JAS-2 25 Oct 06:56:49 07:04:42 81° 103° (ESE) 07:12:27 435.800 - 435.900 CW/SSB, 435.910 FM
Uosat F 25 Oct 07:01:04 07:04:52 22° 293° (WNW) 07:08:40 435.120 FM
Saudisat 1A 25 Oct 07:11:35 07:15:03 23° 111° (ESE) 07:18:32 436.775 MHz
AO-7 25 Oct 07:13:51 07:20:56 33° 299° (WNW) 07:28:03 29.400 - 29.500 MHz
SO-67 25 Oct 07:28:41 07:29:21 10° 92° (E) 07:30:01 435.3500 MHz FM
PANSAT 25 Oct 07:45:12 07:47:56 19° 166° (SSE) 07:50:41 not established
STRAND 1 25 Oct 07:51:08 07:56:11 59° 259° (W) 08:01:16 ?
Hamsat 25 Oct 08:00:07 08:03:38 26° 289° (WNW) 08:07:09 145.90 MHz
JAS-2 25 Oct 08:43:30 08:48:47 20° 299° (WNW) 08:54:05 435.800 - 435.900 CW/SSB, 435.910 FM
Saudisat 1A 25 Oct 08:50:35 08:54:26 30° 307° (NW) 08:58:20 436.775 MHz
RS-15 25 Oct 08:52:17 09:03:25 70° 246° (WSW) 09:15:04 29.354 - 29.394 USB, Beacon 29.352 USB
SO-67 25 Oct 08:59:19 09:02:26 32° 286° (WNW) 09:05:32 435.3500 MHz FM
PANSAT 25 Oct 09:24:18 09:27:37 28° 178° (S) 09:30:56 not established
HO-68 25 Oct 09:31:37 09:37:42 29° 97° (E) 09:43:44 435.675 MHz FM
Oscar 11 25 Oct 10:16:51 10:19:56 19° 95° (E) 10:23:00 145.825 FM, Beacon 2401.500 USB
MaSat-1 25 Oct 10:39:36 10:41:38 22° 253° (WSW) 10:43:34 437.345 MHz
KITSAT 1 25 Oct 11:03:09 11:07:40 16° 101° (E) 11:12:12 435.175 FM
PANSAT 25 Oct 11:04:18 11:07:19 22° 191° (S) 11:10:19 not established
ZACube-1 25 Oct 11:06:58 11:10:38 28° 97° (E) 11:14:14 437.345 MHz
RS-15 25 Oct 11:10:13 11:13:49 12° 263° (W) 11:17:28 29.354 - 29.394 USB, Beacon 29.352 USB
UKube-1 25 Oct 11:10:44 11:15:08 90° 283° (WNW) 11:19:29 145.840 MHz, 145.915 MHz
HO-68 25 Oct 11:18:43 11:25:31 47° 292° (WNW) 11:32:17 435.675 MHz FM
FUNcube-1 25 Oct 11:51:09 11:55:24 80° 283° (WNW) 11:59:32 145.950 - 145.970 MHz USB
Oscar 11 25 Oct 11:52:21 11:56:07 30° 289° (WNW) 11:59:52 145.825 FM, Beacon 2401.500 USB
ISS 25 Oct 12:20:17 12:23:21 36° 133° (SE) 12:26:26 145.800 FM
Sapphire 25 Oct 12:33:02 12:36:11 15° 48° (NE) 12:39:18 437.095 MHz 1200 baud AX-25 AFSK
Oscar 10/S400 25 Oct 12:36:47 12:59:01 34° 153° (SSE) 13:15:39 145.825 - 145.975 CW/USB, Beacon 145.810 USB
ZACube-1 25 Oct 12:43:47 12:46:49 19° 291° (WNW) 12:49:48 437.345 MHz
SO-50 25 Oct 12:52:48 12:57:02 44° 114° (ESE) 13:01:22 436.795 FM
KITSAT 1 25 Oct 12:53:55 13:02:00 86° 297° (WNW) 13:10:08 435.175 FM
PCSat 25 Oct 12:54:38 12:59:02 25° 53° (NE) 13:03:24 145.825 MHz
Oscar 16 25 Oct 13:18:12 13:22:20 25° 68° (ENE) 13:26:27 437.025 USB, Beacon 2401.1428
Uribyol 2 25 Oct 13:39:54 13:43:09 17° 64° (ENE) 13:46:24 436.500 FM
ITAMSAT 1 25 Oct 13:45:52 13:49:19 18° 65° (ENE) 13:52:45 435.822 SSB
ISS 25 Oct 13:57:27 14:00:06 22° 328° (NNW) 14:02:45 145.800 FM
Gurwin Techsat 1B 25 Oct 14:09:47 14:12:52 16° 64° (ENE) 14:15:57 435.225 FM
Oscar 19 25 Oct 14:10:19 14:15:28 80° 76° (ENE) 14:20:37 437.125 CW, 437.150 USB
UOSAT-12 25 Oct 14:13:40 14:17:29 26° 111° (ESE) 14:21:23 437.025 FM, 437.400 FM
Sapphire 25 Oct 14:14:45 14:20:11 75° 246° (WSW) 14:25:34 437.095 MHz 1200 baud AX-25 AFSK
TMSAT-1 25 Oct 14:20:54 14:23:43 15° 64° (ENE) 14:26:32 436.925 FM
JAS-1B 25 Oct 14:28:06 14:34:13 88° 256° (WSW) 14:39:55 435.800 - 435.900 CW/SSB
AO-27 25 Oct 14:29:48 14:34:48 49° 72° (ENE) 14:39:50 436.795 MHz FM
SO-50 25 Oct 14:34:35 14:37:47 19° 312° (NW) 14:41:04 436.795 FM
PCSat 25 Oct 14:37:29 14:42:34 42° 250° (WSW) 14:47:37 145.825 MHz
AO-Echo 25 Oct 14:46:11 14:51:02 90° 263° (W) 14:56:06 ?
KITSAT 1 25 Oct 14:52:58 14:58:33 20° 318° (NW) 15:04:10 435.175 FM
Oscar 16 25 Oct 14:56:49 15:01:28 34° 262° (W) 15:06:08 437.025 USB, Beacon 2401.1428
Uribyol 2 25 Oct 15:17:03 15:22:08 53° 259° (W) 15:27:16 436.500 FM
ITAMSAT 1 25 Oct 15:23:20 15:28:22 49° 260° (W) 15:33:26 435.822 SSB
Saudisat 1A 25 Oct 15:42:59 15:43:34 10° 44° (NE) 15:44:09 436.775 MHz
Gurwin Techsat 1B 25 Oct 15:47:05 15:52:17 59° 259° (W) 15:57:32 435.225 FM
UOSAT-12 25 Oct 15:53:25 15:57:30 30° 307° (NW) 16:01:40 437.025 FM, 437.400 FM
TMSAT-1 25 Oct 15:57:49 16:03:03 63° 259° (W) 16:08:19 436.925 FM
AO-27 25 Oct 16:11:14 16:14:32 17° 267° (W) 16:17:51 436.795 MHz FM
AO-7 25 Oct 16:16:02 16:23:59 54° 67° (ENE) 16:31:57 29.400 - 29.500 MHz
Uosat F 25 Oct 16:32:02 16:36:39 38° 71° (ENE) 16:41:17 435.120 FM
JAS-2 25 Oct 17:07:09 17:11:49 24° 63° (ENE) 17:16:54 435.800 - 435.900 CW/SSB, 435.910 FM
Hamsat 25 Oct 17:17:20 17:18:19 11° 66° (ENE) 17:19:18 145.90 MHz
Saudisat 1A 25 Oct 17:19:20 17:23:46 89° 62° (ENE) 17:28:11 436.775 MHz
AO-7 25 Oct 18:10:03 18:16:59 30° 263° (W) 18:23:59 29.400 - 29.500 MHz
Uosat F 25 Oct 18:11:48 18:15:30 21° 265° (W) 18:19:14 435.120 FM
OPAL 25 Oct 18:19:12 18:23:55 43° 101° (ESE) 18:28:35 ?
Hamsat 25 Oct 18:49:38 18:53:46 55° 260° (W) 18:57:53 145.90 MHz
JAS-2 25 Oct 18:50:48 18:56:22 48° 262° (W) 19:02:42 435.800 - 435.900 CW/SSB, 435.910 FM
ISS 25 Oct 18:51:51 18:54:02 16° 29° (NNE) 18:56:14 145.800 FM
SO-67 25 Oct 19:28:31 19:31:46 41° 75° (ENE) 19:35:02 435.3500 MHz FM
OPAL 25 Oct 19:59:01 20:02:26 19° 296° (WNW) 20:05:51 ?
HO-68 25 Oct 19:59:10 20:03:22 17° 58° (ENE) 20:07:34 435.675 MHz FM
STRAND 1 25 Oct 20:04:46 20:09:53 61° 101° (E) 20:14:56 ?
ISS 25 Oct 20:27:42 20:30:59 60° 225° (SW) 20:34:16 145.800 FM
KITSAT 1 25 Oct 20:51:09 20:57:58 29° 48° (NE) 21:04:44 435.175 FM
RS-15 25 Oct 21:03:11 21:11:11 24° 102° (ESE) 21:19:04 29.354 - 29.394 USB, Beacon 29.352 USB
Oscar 11 25 Oct 21:11:05 21:12:18 11° 65° (ENE) 21:13:30 145.825 FM, Beacon 2401.500 USB
SO-50 25 Oct 21:27:33 21:31:15 21° 50° (NE) 21:34:57 436.795 FM
HO-68 25 Oct 21:42:58 21:50:08 85° 255° (WSW) 21:57:22 435.675 MHz FM
STRAND 1 25 Oct 21:45:45 21:48:30 15° 296° (WNW) 21:51:15 ?
ZACube-1 25 Oct 22:00:57 22:04:07 19° 68° (ENE) 22:07:15 437.345 MHz
UKube-1 25 Oct 22:03:03 22:07:16 52° 74° (ENE) 22:11:30 145.840 MHz, 145.915 MHz
Oscar 11 25 Oct 22:43:41 22:47:56 57° 260° (W) 22:52:13 145.825 FM, Beacon 2401.500 USB
FUNcube-1 25 Oct 22:43:55 22:48:24 55° 75° (ENE) 22:52:50 145.950 - 145.970 MHz USB
UOSAT-12 25 Oct 22:47:06 22:49:12 13° 44° (NE) 22:51:17 437.025 FM, 437.400 FM
